Regional Weather Roundup
Issued by NWS Albany, NY

Home | Current Version | Previous Version | Text Only | Print | Product List | Glossary On
Versions: 1 2 3 4 5 6 7 8 9 10 11 12 13 14 15 16 17 18 19 20 21 22 23 24 25 26 27 28 29 30 31 32 33 34 35 36 37 38 39 40 41 42 43 44 45 46 47
000
ASUS41 KALY 011610
RWRALY

NEW YORK STATE HOURLY WEATHER ROUNDUP
NATIONAL WEATHER SERVICE ALBANY NY
1200 PM EDT WED OCT 01 2014

NOTE: "FAIR" INDICATES FEW OR NO CLOUDS BELOW 12,000 FEET WITH NO
SIGNIFICANT WEATHER AND/OR NO OBSTRUCTIONS TO VISIBILITY.

NYZ032-033-038>043-046>054-057>066-NYZ062>081-011700-
EAST


CITY           SKY/WX    TMP DP  RH WIND       PRES   REMARKS
ALBANY         CLOUDY    63  57  81 N3        30.11S
GLENS FALLS    PTSUNNY   63  54  72 N9        30.12S
POUGHKEEPSIE   CLOUDY    62  58  86 N5        30.07F FOG
NEWBURGH       CLOUDY    59  59 100 NE8       30.09S FOG
MONTGOMERY     LGT RAIN  61  59  93 N8        30.08S FOG
WHITE PLAINS   CLOUDY    61  58  90 N6        30.05S
ISLIP          CLOUDY    64  59  83 N12       30.02R
NEW YORK CITY  CLOUDY    64  58  80 NE8       30.05S
CENTRAL PARK   CLOUDY    63  57  81 VRB6      30.08S
$$

NYZ005>009-017-018-044>046-055-056-011700-
CENTRAL


CITY           SKY/WX    TMP DP  RH WIND       PRES   REMARKS
FULTON         PTSUNNY   69  58  67 CALM      30.08S
SYRACUSE       PTSUNNY   73  60  63 NE5       30.07F
ROME           PTSUNNY   67  58  72 SE7       30.10F
ELMIRA         CLOUDY    65  58  78 CALM      30.08S
BINGHAMTON     CLOUDY    63  58  83 E6        30.09S
MONTICELLO     CLOUDY    59  55  88 E7        30.11S
$$

NYZ026>034-041>043-011700-
NORTH


CITY           SKY/WX    TMP DP  RH WIND       PRES   REMARKS
WATERTOWN      MOSUNNY   63  54  72 NE10      30.10F
FORT DRUM      NOT AVBL
MASSENA        CLOUDY    57  52  83 NE15      30.16F
SARANAC LAKE   MOSUNNY   60  53  77 E5        30.12F
PLATTSBURGH    CLOUDY    54  51  90 N9        30.16S
$$

NYZ001>004-010>016-019>021-011700-
WEST


CITY           SKY/WX    TMP DP  RH WIND       PRES   REMARKS
NIAGARA FALLS  CLOUDY    62  58  86 E8        30.07S
BUFFALO        CLOUDY    63  57  81 E8        30.07S
DUNKIRK        MOSUNNY   66  57  72 E9        30.06F
JAMESTOWN      CLOUDY    59  55  88 S3        30.08S
WELLSVILLE     CLOUDY    57  55  93 SE5       30.11S
ROCHESTER      DRIZZLE   62  60  93 E5        30.09R FOG
PENN YAN       CLOUDY    62  32  32 CALM      30.10S HAZE
$$

             KEY
       WCI = WIND CHILL INDEX
       VSB = VISIBILITY
       HX  = HEAT INDEX
$$



USA.gov is the U.S. government's official web portal to all federal, state and local government web resources and services.